Other Public Products
Issued by NWS Charleston, SC

Current Version | Previous Version | Graphics & Text | Print | Product List | Glossary On
Versions: 1 2 3 4 5 6 7 8 9 10 11 12 13 14 15 16 17 18 19 20 21 22 23 24 25 26 27 28 29 30 31 32 33 34 35 36 37 38 39 40 41 42 43 44 45 46 47 48 49 50
000
FPUS82 KCHS 221512
OPUCHS

TEST...KCHS/KSAV Gateway Observations...TEST
National Weather Service Charleston SC
1100 AM EDT THU JUN 22 2017

NOTE: "fair" indicates few or no clouds below 12,000 feet with no
significant weather and/or obstructions to visibility.

SCZ050-WAZ558-NCZ071-TXZ119-213-PAZ071-DCZ001-FLZ074-172-MI076-
NYZ176-178-MAZ016-IL014-TNZ027-NJZ106-GAZ044-MD014-221600-

...Gateway Observations for Charleston International...

CITY           SKY/WX    TMP DP  RH WIND       PRES   REMARKS
Chas Airport   CLOUDY    85  75  72 SW8       30.12R HX  93
Seattle        SUNNY     59  48  67 N8        30.32R
Charlotte      LGT RAIN  73  68  84 SW7       30.17R
Dallas DFW     PTSUNNY   82  72  71 NE8       29.70F
Dallas Love    PTSUNNY   81  71  71 NE8       29.70S
Philladelphia  PTSUNNY   84  61  45 VRB3      30.01S
Wash National  CLOUDY    84  72  67 S8        30.00F
Baltimore      PTSUNNY   83  68  60 SE3       30.00F
Miami          PTSUNNY   87  74  64 SE14G22   30.07F HX  95
Detroit        CLOUDY    71  64  78 SW9       29.92S
Newark         PTSUNNY   79  59  50 S8        29.99F
Laguardia      PTSUNNY   78  55  44 NE8       29.99F
J F K          MOSUNNY   77  62  59 SE10      30.01F
Boston Logan   MOSUNNY   74  56  53 SE8       29.95F
Ft. Lauderdale MOSUNNY   88  76  67 SE14      30.07S HX  99
Chicago O`Hare PTSUNNY   83  66  56 SW17G25   29.83F
Chicago Midway PTSUNNY   82  69  64 S15       29.84F
Houston Bush   CLOUDY    78  75  90 W12G17    29.65R
Houston Hobby  CLOUDY    78  74  87 SW13      29.67R
Nashville      HVY RAIN  72  70  93 SE14G22   30.01F FOG
Atlanta        LGT RAIN  74  73  97 E7        30.12S FOG

$$

GAZ044-118-TXZ119-213-NCZ071-DCZ001-MDZ014-506-PAZ021-071-NJZ106-
NYZ176-178-MAZ106-OHZ011-021-055-MIZ076-KYZ091-ILZ014-INZ047-
MNZ060-ONZ431-221600-

...Gateway Observations for Savannah International...

CITY           SKY/WX    TMP DP  RH WIND       PRES   REMARKS
Savannah Arpt  CLOUDY    86  74  67 W9        30.12R HX  94
Atlanta        LGT RAIN  74  73  97 E7        30.12S FOG
Charlotte      LGT RAIN  73  68  84 SW7       30.17R
Dallas DFW     PTSUNNY   82  72  71 NE8       29.70F
Houston Bush   CLOUDY    78  75  90 W12G17    29.65R
Wash National  CLOUDY    84  72  67 S8        30.00F
Wash Dulles    PTSUNNY   83  65  54 W5        30.01F
Baltimore      PTSUNNY   83  68  60 SE3       30.00F
Philadelphia   PTSUNNY   84  61  45 VRB3      30.01S
Newark         PTSUNNY   79  59  50 S8        29.99F
Laguardia      PTSUNNY   78  55  44 NE8       29.99F
J F K          MOSUNNY   77  62  59 SE10      30.01F
Boston         MOSUNNY   74  56  53 SE8       29.95F
Pittsburg      PTSUNNY   80  70  71 SW9       30.02F
Akron          PTSUNNY   80  66  62 W6        30.00F
Cleveland      CLOUDY    81  69  67 SW10      29.98S
Cincinnati     CLOUDY    77  69  76 S9        30.04R
Columbus       MOSUNNY   81  70  68 SW14      30.01S
Detroit        CLOUDY    71  64  78 SW9       29.92S
Chicago O`Hare PTSUNNY   83  66  56 SW17G25   29.83F
Minneapolis    HVY RAIN  70  63  78 SE12      29.70R
Indianapolis   PTSUNNY   80  70  71 SW17      29.96F
Toronto Canada LGT RAIN  66  57  72 CALM      29.99R

$$




USA.gov is the U.S. government's official web portal to all federal, state and local government web resources and services.